TimeEST,TemperatureF,Dew PointF,Humidity,Sea Level PressureIn,VisibilityMPH,Wind Direction,Wind SpeedMPH,Gust SpeedMPH,PrecipitationIn,Events,Conditions,WindDirDegrees,DateUTC
12:10 AM,32.0,30.9,96,29.80,1.8,North,8.1,18.4,0.01,Snow,Light Snow,350,2012-11-08 05:10:00
12:29 AM,32.0,30.9,96,29.80,0.8,Variable,5.8,17.3,0.02,Snow,Light Snow,0,2012-11-08 05:29:00
12:51 AM,32.0,30.0,92,29.76,2.0,North,10.4,23.0,0.03,Snow,Light Snow,10,2012-11-08 05:51:00
1:12 AM,32.0,30.9,96,29.78,2.0,NNW,9.2,23.0,0.00,Snow,Light Snow,330,2012-11-08 06:12:00
1:42 AM,32.0,30.0,92,29.77,3.0,Variable,6.9,23.0,0.02,,Overcast,0,2012-11-08 06:42:00
1:51 AM,32.0,30.0,92,29.75,3.0,Variable,6.9,-,0.02,,Overcast,0,2012-11-08 06:51:00
2:51 AM,33.1,28.0,82,29.75,4.0,Variable,6.9,-,0.02,,Haze,0,2012-11-08 07:51:00
3:51 AM,33.1,28.9,85,29.75,4.0,Variable,4.6,-,N/A,,Overcast,0,2012-11-08 08:51:00
4:51 AM,34.0,28.0,79,29.77,5.0,Variable,3.5,-,N/A,,Haze,0,2012-11-08 09:51:00
5:51 AM,34.0,28.0,79,29.77,5.0,Variable,4.6,-,N/A,,Haze,0,2012-11-08 10:51:00
6:51 AM,34.0,28.0,79,29.78,5.0,North,-9999.0,-,N/A,,Haze,0,2012-11-08 11:51:00
7:51 AM,35.1,26.1,70,29.79,5.0,Variable,4.6,-,N/A,,Haze,0,2012-11-08 12:51:00
8:51 AM,36.0,25.0,64,29.79,8.0,Variable,3.5,-,N/A,,Overcast,0,2012-11-08 13:51:00
9:51 AM,36.0,26.1,67,29.79,10.0,Variable,4.6,-,N/A,,Overcast,0,2012-11-08 14:51:00
10:51 AM,37.9,26.1,62,29.78,10.0,WNW,8.1,-,N/A,,Overcast,300,2012-11-08 15:51:00
11:51 AM,41.0,26.1,55,29.75,10.0,NW,10.4,16.1,N/A,,Mostly Cloudy,310,2012-11-08 16:51:00
12:51 PM,43.0,24.1,47,29.74,10.0,NW,10.4,18.4,N/A,,Clear,310,2012-11-08 17:51:00
1:51 PM,45.0,24.1,44,29.74,10.0,Variable,4.6,-,N/A,,Overcast,0,2012-11-08 18:51:00
2:51 PM,48.0,24.1,39,29.75,10.0,Variable,4.6,-,N/A,,Scattered Clouds,0,2012-11-08 19:51:00
3:51 PM,45.0,24.1,44,29.77,10.0,WNW,12.7,21.9,N/A,,Overcast,300,2012-11-08 20:51:00
4:51 PM,44.1,21.9,42,29.79,10.0,WNW,10.4,19.6,N/A,,Overcast,300,2012-11-08 21:51:00
5:51 PM,43.0,21.9,43,29.82,10.0,Variable,6.9,23.0,N/A,,Mostly Cloudy,0,2012-11-08 22:51:00
6:51 PM,43.0,21.9,43,29.84,10.0,Calm,Calm,-,N/A,,Clear,0,2012-11-08 23:51:00
7:51 PM,42.1,21.9,45,29.86,10.0,WNW,9.2,19.6,N/A,,Partly Cloudy,300,2012-11-09 00:51:00
8:51 PM,41.0,23.0,49,29.88,10.0,WNW,8.1,-,N/A,,Partly Cloudy,300,2012-11-09 01:51:00
9:51 PM,39.0,23.0,53,29.90,10.0,WNW,13.8,20.7,N/A,,Clear,300,2012-11-09 02:51:00
10:51 PM,37.9,24.1,57,29.91,10.0,WNW,8.1,19.6,N/A,,Clear,300,2012-11-09 03:51:00
11:51 PM,37.9,24.1,57,29.91,10.0,WNW,9.2,20.7,N/A,,Clear,300,2012-11-09 04:51:00